Raleigh County Memorial Airport
KBKW : now visible

Airfield :











YOU CAN JOIN US ON...

 
LOGIN :

Register | Disclaimer

   EN    FR    IT 

 









Legend :    VFR   Marginal VFR   IFR   Intensive IFR   Very Intensive IFR
Visi :
Ceiling :
>= 8 km
>= 3000ft
5 to 8 km
1000 to 3000 ft
1500m to 5 km
500 to 1000 ft
800 to 1500m
200 to 500 ft
< 800m
< 200 ft
Symbols :   Thunderstorms  Fog  Heavy snow  Heavy precipitations  Wind > 20 kt






- Airport Elevation : 2504 ft
- IATA code : BKW


KBKW - Raleigh County Memorial

CURRENT METAR :
  • 170251Z AUTO 30010KT 10SM OVC048 09/03 A3010 RMK AO2 SLP187 T00890033 51021 TSNO

EXPIRED METARs :
  • 170151Z AUTO 30009KT 10SM BKN046 09/04 A3008 RMK AO2 SLP179 T00890039 TSNO
  • 170051Z AUTO 29005KT 10SM FEW045 09/05 A3005 RMK AO2 SLP167 T00890050 TSNO

TAF KBKW
Valid from the 17 at 03:00 until the 18 at 00:00 UTC


170233Z 1703/1724 30008KT P6SM BKN040
FM171400 30011G17KT P6SM FEW040
FM171800 30018G27KT P6SM FEW070
KZID FIR / North America



MET'MAP, your aeronautical weather chart ! - Copyright ORBIFLY December 2007 - Disclaimer

ORBIFLY MET'MAP TEAM :

Programming & Development : Alexandra Zaïnal
Concept & original design : Baudouin d'Aumeries
Assistance for programming : Marc-Olivier Méhu
Technical & hardware support : Manuel Goepfert

Contact : metmap@orbifly.com




SOURCES & CREDITS :

   NOAA       Earth
Advisory